QPF
0.00 0.00 0.00 0.00 0.00 0.01 0.00 0.00 0.00 0.00 0.00 0.00 0.00 0.00 0.00 0.00 0.00 0.00 0.00 0.00 0.00 0.00
0.00 0.00 0.00 0.00 0.00 0.01 0.00 0.01 0.00 0.00 0.00 0.00 0.00 0.00 0.00 0.00 0.00 0.00 0.00 0.00 0.00 0.00
0.00 0.00 0.00 0.00 0.00 0.04 0.03 0.04 0.01 0.01 0.01 0.02 0.01 0.00 0.00 0.00 0.00 0.00 0.00 0.00 0.00 0.00
0.00 0.00 0.02 0.00 0.00 0.01 0.06 0.03 0.01 0.01 0.00 0.00 0.00 0.00 0.00 0.00 0.00 0.00 0.00 0.00 0.00 0.00
0.00 0.00 0.03 0.03 0.01 0.03 0.00 0.02 0.08 0.02 0.00 0.00 0.00 0.00 0.00 0.00 0.00 0.00 0.00 0.00 0.00 0.00
0.00 0.00 0.00 0.03 0.06 0.03 0.03 0.06 0.07 0.04 0.03 0.00 0.00 0.01 0.00 0.01 0.00 0.00 0.00 0.00 0.01 0.00
0.01 0.03 0.04 0.03 0.02 0.01 0.01 0.01 0.02 0.03 0.04 0.01 0.00 0.00 0.00 0.02 0.05 0.03 0.00 0.00 0.02 0.02
0.03 0.04 0.09 0.13 0.14 0.08 0.02 0.00 0.01 0.01 0.01 0.01 0.00 0.00 0.00 0.01 0.05 0.03 0.00 0.00 0.00 0.00
0.12 0.04 0.02 0.04 0.08 0.08 0.11 0.12 0.10 0.03 0.04 0.05 0.03 0.04 0.01 0.00 0.00 0.01 0.00 0.00 0.00 0.00
0.05 0.07 0.04 0.02 0.00 0.00 0.01 0.03 0.07 0.13 0.14 0.09 0.06 0.09 0.08 0.04 0.00 0.00 0.00 0.01 0.00 0.00
0.00 0.00 0.01 0.03 0.02 0.01 0.00 0.00 0.04 0.07 0.10 0.18 0.19 0.19 0.12 0.14 0.04 0.00 0.00 0.00 0.00 0.00
0.01 0.00 0.00 0.00 0.01 0.02 0.01 0.00 0.01 0.04 0.05 0.05 0.16 0.21 0.22 0.13 0.09 0.04 0.02 0.02 0.00 0.00
0.00 0.00 0.00 0.00 0.00 0.00 0.00 0.00 0.01 0.03 0.02 0.02 0.07 0.09 0.10 0.12 0.11 0.07 0.10 0.03 0.00 0.02
0.00 0.00 0.00 0.00 0.00 0.00 0.00 0.00 0.01 0.01 0.01 0.01 0.02 0.03 0.02 0.05 0.07 0.07 0.10 0.04 0.03 0.01
MSLP
1020.08 1020.48 1020.79 1020.93 1021.20 1021.15 1021.25 1021.30 1021.26 1021.42 1021.64 1021.75 1021.83 1021.99 1022.20 1022.38 1022.58 1022.68 1022.97 1023.17 1023.18 1023.10
1019.91 1020.32 1020.62 1020.83 1021.04 1020.92 1020.93 1020.92 1021.07 1021.10 1021.28 1021.55 1021.75 1021.86 1022.03 1022.37 1022.46 1022.58 1022.90 1023.04 1023.16 1023.05
1019.84 1020.05 1020.37 1020.62 1020.75 1020.70 1020.67 1020.80 1021.00 1021.13 1021.20 1021.34 1021.63 1021.81 1022.01 1022.27 1022.33 1022.61 1022.78 1023.03 1023.08 1023.07
1019.85 1020.03 1020.28 1020.43 1020.52 1020.53 1020.48 1020.41 1020.69 1020.87 1021.18 1021.37 1021.45 1021.54 1021.86 1022.10 1022.33 1022.58 1022.72 1022.91 1022.99 1022.96
1019.94 1019.96 1020.06 1020.17 1020.16 1020.02 1020.22 1020.21 1020.59 1020.74 1021.05 1021.20 1021.35 1021.48 1021.65 1021.97 1022.18 1022.51 1022.64 1022.60 1022.67 1022.61
1020.26 1020.28 1020.27 1020.20 1019.98 1020.05 1020.14 1020.32 1020.45 1020.87 1020.82 1020.99 1021.07 1021.37 1021.45 1021.65 1021.83 1022.12 1022.21 1022.27 1022.41 1022.24
1020.31 1020.45 1020.67 1020.64 1020.51 1020.36 1020.30 1020.44 1020.68 1020.79 1020.87 1020.90 1021.00 1021.06 1021.27 1021.55 1021.61 1021.70 1021.78 1021.83 1021.84 1021.83
1020.40 1020.61 1020.85 1020.88 1020.79 1020.62 1020.45 1020.41 1020.52 1020.57 1020.62 1020.57 1020.66 1020.77 1020.91 1021.15 1021.17 1021.27 1021.35 1021.32 1021.30 1021.18
1020.13 1020.75 1021.38 1021.37 1021.06 1020.87 1020.74 1020.63 1020.50 1020.42 1020.38 1020.25 1020.37 1020.46 1020.55 1020.69 1020.80 1020.90 1021.02 1021.01 1020.79 1020.58
1021.47 1021.51 1021.64 1021.69 1021.50 1021.22 1020.88 1021.08 1020.90 1020.88 1020.76 1020.47 1020.37 1020.32 1020.22 1020.23 1020.30 1020.38 1020.53 1020.51 1020.54 1020.40
1021.79 1021.85 1021.62 1021.79 1021.86 1021.25 1021.02 1021.08 1021.17 1021.09 1021.08 1021.05 1020.72 1020.41 1020.56 1020.47 1020.36 1020.05 1020.02 1020.15 1020.03 1020.05
1022.49 1022.41 1021.97 1022.06 1021.91 1021.73 1021.66 1021.54 1020.83 1021.16 1021.13 1021.18 1021.09 1020.62 1020.36 1020.12 1020.17 1020.05 1019.80 1019.74 1019.62 1019.55
1023.15 1023.12 1023.08 1022.76 1022.62 1022.06 1021.78 1021.35 1021.55 1021.21 1020.88 1020.75 1021.01 1020.67 1020.23 1020.09 1020.18 1019.82 1019.70 1019.36 1019.13 1019.14
1023.89 1023.64 1023.55 1023.10 1022.73 1022.33 1021.89 1021.59 1021.50 1021.58 1021.68 1021.72 1021.53 1021.08 1020.81 1020.72 1020.41 1019.82 1019.22 1019.02 1018.92 1018.89
Thickness
5765 5764 5762 5763 5763 5764 5763 5764 5763 5763 5763 5762 5762 5762 5763 5763 5763 5763 5763 5762 5763 5764
5764 5763 5762 5761 5762 5763 5764 5763 5764 5765 5765 5763 5762 5761 5761 5761 5762 5764 5763 5762 5763 5765
5763 5763 5762 5762 5761 5763 5764 5762 5762 5762 5763 5763 5762 5761 5760 5760 5761 5762 5762 5762 5762 5764
5758 5761 5760 5760 5761 5762 5762 5764 5765 5764 5761 5762 5763 5762 5762 5761 5760 5759 5761 5762 5761 5762
5752 5757 5758 5759 5762 5763 5763 5763 5761 5761 5761 5761 5762 5762 5762 5760 5760 5757 5757 5761 5761 5762
5743 5747 5751 5754 5759 5761 5761 5761 5760 5759 5760 5760 5761 5759 5761 5760 5760 5759 5759 5759 5759 5762
5736 5739 5740 5745 5751 5754 5757 5757 5757 5757 5758 5758 5759 5759 5757 5757 5758 5759 5761 5762 5762 5762
5731 5732 5734 5735 5740 5745 5749 5752 5753 5754 5755 5758 5759 5759 5757 5757 5759 5759 5760 5763 5764 5765
5726 5722 5721 5725 5730 5735 5739 5741 5746 5748 5750 5753 5755 5758 5758 5758 5759 5760 5759 5759 5763 5767
5708 5708 5711 5713 5717 5724 5731 5732 5736 5739 5742 5747 5750 5752 5755 5758 5759 5760 5759 5760 5760 5763
5702 5702 5704 5704 5707 5716 5722 5723 5725 5729 5731 5735 5740 5744 5746 5748 5753 5757 5758 5758 5760 5761
5691 5693 5696 5697 5698 5702 5708 5712 5720 5720 5723 5724 5727 5734 5738 5742 5747 5750 5753 5754 5759 5761
5680 5682 5684 5687 5691 5696 5701 5705 5706 5711 5717 5720 5720 5724 5732 5734 5739 5745 5746 5750 5755 5758
5666 5669 5673 5679 5682 5689 5695 5700 5699 5701 5702 5705 5710 5714 5718 5723 5731 5739 5745 5749 5750 5754